Regional Weather Roundup
Issued by NWS New Orleans/Baton Rouge, LA

Home | Current Version | Previous Version | Text Only | Print | Product List | Glossary On
Versions: 1 2 3 4 5 6 7 8 9 10 11 12 13 14 15 16 17 18 19 20 21 22 23 24 25 26 27 28 29 30 31 32 33 34 35 36 37 38 39 40 41 42 43 44 45 46 47 48 49 50
760
ASUS44 KLIX 190410
RWRLIX
NEW ORLEANS REGIONAL WEATHER ROUNDUP
NATIONAL WEATHER SERVICE NEW ORLEANS LA
1000 PM CST THU DEC 18 2014

NOTE: "FAIR" INDICATES FEW OR NO CLOUDS BELOW 12,000 FEET WITH NO
      SIGNIFICANT WEATHER AND/OR OBSTRUCTIONS TO VISIBILITY.
      SKY/WX - SKY CONDITION AND SIGNIFICANT WEATHER.
      TMP - AIR TEMPERATURE.     DP    - DEWPOINT TEMPERATURE.
      RH  - RELATIVE HUMIDITY.   PRES  - PRESSURE.
      HI  - HEAT INDEX.          WCI   - WIND CHILL INDEX.

*  THESE STATIONS ARE NOT NWS OR FAA STATIONS AND ARE NOT UNDER
   NWS QUALITY CONTROL.

LAZ038-040-048-061>063-065>067-069-190500-
SOUTHEAST LOUISIANA

CITY           SKY/WX    TMP DP  RH WIND       PRES   REMARKS
N.O. AUDUBON     N/A     59  56  90 MISG        N/A
N.O. INTL ARPT LGT RAIN  58  53  84 E8        30.13F
N.O. LAKEFRONT CLOUDY    59  53  80 E8        30.14S
N.O. DOWNTOWN* CLOUDY    57  50  77 NE7       30.14F
SLIDELL        CLOUDY    59  53  80 N8        30.15R
BATON ROUGE    CLOUDY    56  54  93 NE7       30.14R FOG
BOOTHVILLE     CLOUDY    60  58  92 NE5       30.13S
BELLE CHASSE   CLOUDY    57  56  96 NE7       30.13F
BOGALUSA*        N/A     53  50  89 NE5       30.18S
GALLIANO*      LGT RAIN  61  59  94 MISG      30.13S
NEW ROADS*     CLOUDY    55  54  97 NE5       30.14S
GONZALES*      CLOUDY    59  58  96 E6        30.13S
HAMMOND*       NOT AVBL
HOUMA*         CLOUDY    59  58  97 NE8       30.12S FOG
PORT FOURCHON* PTCLDY    66  63  88 NE7       30.15R

$$

MSZ070-080>082-190500-
SOUTHERN MISSISSIPPI

CITY           SKY/WX    TMP DP  RH WIND       PRES   REMARKS
MCCOMB         CLOUDY    51  49  92 SE3       30.16S
GULFPORT       CLOUDY    59  49  69 E5        30.14F
BILOXI         CLOUDY    59  49  68 E7        30.15S
PASCAGOULA     CLOUDY    58  46  64 NE3       30.16S

$$

COASTAL OBSERVATIONS
LAKE AND NEARSHORE STATIONS

STATION/POSITION TIME  TEMP    WIND        PRES    WAVE
                       AIR SEA DIR/SP/G            HT/PER
                 (UTC) (F)     (DEG/KT/KT) (MB)    (FT/S)
PASCAGOULA       0400   58      40/  6/ 10 1020.7
WAVELAND YACHT   0400   58      90/  4/  6 1020.0
GRAND ISLE       0400   63 62   60/  7/  9 1020.4
SOUTHWEST PASS   0400   65                 1020.1
NEW CANAL        0400   58 58   80/  5/  8 1020.7
SHELL BEACH      0400   59 60   30/  8/  9 1020.6

OFFSHORE STATIONS

STATION/POSITION TIME  TEMP    WIND        PRES    WAVE
                       AIR SEA DIR/SP/G            HT/PER
                 (UTC) (F)     (DEG/KT/KT) (MB)    (FT/S)
64 S DAUPHIN ISL 0400   69 75  120/  8/ 10 1020.0    1/ 6

$$




USA.gov is the U.S. government's official web portal to all federal, state and local government web resources and services.